GLOBALSTAR M050 [-]

Last updated on Fri Dec 29 2023 00:02:56 GMT+0000 (Coordinated Universal Time)

1 25908U 99049B 23361.72102958 -.00000145 00000+0 -64258-3 0 9993 2 25908 51.9959 152.1424 0009617 48.0138 53.0566 12.07424808 83260
UTC large
Height (km)
Speed (km/s)
/
Latitude / Longitude
Inclination (degrees)
Orbital Period (minutes)
Azimuth
Elevation
Range (km)
Doppler Factor

Next 0 passes for location: London (51.5072 / 0.1276)

Sorry there are no passes over London.
GLOBALSTAR M050 [-]